{"data":{"norad_id":68118,"intl_designator":"2026-044T","name":"STARLINK-36789","alt_names":[],"object_type":"PAYLOAD","status":"ACTIVE","operator":null,"country":"US","launch_date":"2026-03-08","launch_site_code":"AFWTR","launch_vehicle":null,"mission":null,"orbit_class":"UNKNOWN","rcs_meters":null,"size_class":null,"mass_kg":null,"dimensions":null,"purposes":["comms"],"wikipedia_slug":null,"has_3d_model":false,"image_url":null,"decayed_at":null,"tle_current":{"epoch":"2026-05-25T03:40:23.170080Z","epoch_age_seconds":55219,"freshness":"FRESH","line1":"1 68118U 26044T   26145.15304595  .00017047  00000+0  52898-3 0  9993","line2":"2 68118  97.2844 105.8200 0001955  97.4396 262.7069 15.33454514 13308","mean_motion":15.33454514,"eccentricity":0.0001955,"inclination_deg":97.2844,"raan_deg":105.82,"arg_perigee_deg":97.4396,"mean_anomaly_deg":262.7069,"bstar":0.00052898,"rev_number":1330,"period_min":93.905622035294,"perigee_km":464.17693371403,"apogee_km":466.85280159428,"semimajor_km":6843.6518676542,"source":"CELESTRAK","updated_at":"2026-05-25T13:38:21.844368Z"}}}